ABQ110 OPKC-OMDB

Flight info

Callsign ABQ110
Flight time 1h 36m
Altitude 34000
Route MELOM A454 PASOV B540 MIVEK P574 IMPED
Aircraft A320/M-SDE3FGHIRWY/LB1

Departure

Time 2026-05-08 18:10
Airport Jinnah International Airport (OPKC)

Arrival

Time 2026-05-08 19:47
Airport Dubai International Airport (OMDB)
Time Latitude Longitude Altitude Speed Heading
2026-05-08 17:55 24.90295 67.16843 101 ft 0 kts 125°
2026-05-08 18:00 24.90300 67.16834 100 ft 4 kts 125°
2026-05-08 18:00 24.90315 67.16810 100 ft 4 kts 124°
2026-05-08 18:01 24.90331 67.16786 100 ft 4 kts 123°
2026-05-08 18:01 24.90346 67.16761 100 ft 3 kts 124°
2026-05-08 18:01 24.90358 67.16741 100 ft 4 kts 128°
2026-05-08 18:01 24.90376 67.16720 99 ft 4 kts 142°
2026-05-08 18:02 24.90398 67.16706 101 ft 2 kts 163°
2026-05-08 18:02 24.90400 67.16705 101 ft 0 kts 164°
2026-05-08 18:03 24.90395 67.16706 99 ft 2 kts 164°
2026-05-08 18:04 24.90383 67.16717 99 ft 3 kts 133°
2026-05-08 18:04 24.90376 67.16740 99 ft 4 kts 98°
2026-05-08 18:04 24.90379 67.16765 100 ft 5 kts 75°
2026-05-08 18:05 24.90381 67.16773 101 ft 5 kts 75°
2026-05-08 18:05 24.90392 67.16818 101 ft 7 kts 75°
2026-05-08 18:05 24.90406 67.16875 101 ft 8 kts 75°
2026-05-08 18:06 24.90422 67.16943 101 ft 10 kts 73°
2026-05-08 18:06 24.90448 67.17018 101 ft 11 kts 56°
2026-05-08 18:06 24.90515 67.17033 100 ft 11 kts 347°
2026-05-08 18:06 24.90572 67.17073 102 ft 11 kts 70°
2026-05-08 18:07 24.90595 67.17161 102 ft 12 kts 76°
2026-05-08 18:07 24.90620 67.17258 102 ft 14 kts 75°
2026-05-08 18:07 24.90647 67.17364 102 ft 13 kts 71°
2026-05-08 18:07 24.90705 67.17437 103 ft 13 kts 31°
2026-05-08 18:08 24.90782 67.17486 104 ft 13 kts 29°
2026-05-08 18:08 24.90854 67.17467 107 ft 11 kts 312°
2026-05-08 18:08 24.90853 67.17391 106 ft 0 kts 253°
2026-05-08 18:09 24.90853 67.17390 106 ft 1 kts 253°
2026-05-08 18:09 24.90804 67.17205 107 ft 60 kts 255°
2026-05-08 18:09 24.90634 67.16530 104 ft 120 kts 254°
2026-05-08 18:10 24.90376 67.15478 115 ft 165 kts 257°
2026-05-08 18:10 24.90079 67.14242 662 ft 167 kts 254°
2026-05-08 18:10 24.89760 67.13014 1254 ft 167 kts 252°
2026-05-08 18:10 24.89406 67.11795 1815 ft 169 kts 251°
2026-05-08 18:11 24.89018 67.10499 2082 ft 189 kts 251°
2026-05-08 18:11 24.88582 67.09042 2317 ft 210 kts 251°
2026-05-08 18:11 24.88104 67.07445 2630 ft 229 kts 251°
2026-05-08 18:11 24.87596 67.05736 3072 ft 244 kts 250°
2026-05-08 18:12 24.87053 67.03907 3563 ft 257 kts 251°
2026-05-08 18:12 24.86499 67.02032 4132 ft 265 kts 250°
2026-05-08 18:12 24.85920 67.00076 4733 ft 272 kts 250°
2026-05-08 18:12 24.85327 66.98070 5306 ft 279 kts 250°
2026-05-08 18:13 24.84720 66.96014 5902 ft 285 kts 250°
2026-05-08 18:13 24.84100 66.93910 6484 ft 292 kts 251°
2026-05-08 18:13 24.83752 66.91695 7078 ft 297 kts 265°
2026-05-08 18:13 24.83610 66.89413 7712 ft 301 kts 266°
2026-05-08 18:14 24.83472 66.87107 8391 ft 303 kts 266°
2026-05-08 18:14 24.83337 66.84784 9067 ft 305 kts 267°
2026-05-08 18:14 24.83202 66.82474 9733 ft 308 kts 267°
2026-05-08 18:14 24.83057 66.80082 10082 ft 323 kts 267°
2026-05-08 18:15 24.82902 66.77528 10213 ft 345 kts 267°
2026-05-08 18:15 24.82739 66.74851 10612 ft 354 kts 268°
2026-05-08 18:15 24.82574 66.72125 11151 ft 359 kts 268°
2026-05-08 18:15 24.82406 66.69368 11736 ft 363 kts 269°
2026-05-08 18:16 24.82236 66.66587 12339 ft 366 kts 269°
2026-05-08 18:16 24.82063 66.63782 12936 ft 369 kts 269°
2026-05-08 18:16 24.81891 66.60989 13523 ft 372 kts 270°
2026-05-08 18:16 24.81715 66.58135 14066 ft 375 kts 270°
2026-05-08 18:17 24.81537 66.55260 14607 ft 378 kts 269°
2026-05-08 18:17 24.81357 66.52371 15152 ft 380 kts 269°
2026-05-08 18:17 24.81176 66.49464 15696 ft 382 kts 269°
2026-05-08 18:17 24.80994 66.46540 16246 ft 384 kts 269°
2026-05-08 18:18 24.80812 66.43602 16780 ft 386 kts 268°
2026-05-08 18:18 24.80628 66.40685 17308 ft 388 kts 268°
2026-05-08 18:18 24.80440 66.37713 17846 ft 391 kts 268°
2026-05-08 18:18 24.80248 66.34721 18342 ft 393 kts 268°
2026-05-08 18:19 24.80054 66.31712 18791 ft 395 kts 268°
2026-05-08 18:19 24.79862 66.28683 19235 ft 398 kts 268°
2026-05-08 18:19 24.79669 66.25636 19677 ft 401 kts 268°
2026-05-08 18:19 24.79474 66.22564 20113 ft 404 kts 268°
2026-05-08 18:20 24.79276 66.19474 20556 ft 406 kts 268°
2026-05-08 18:20 24.79075 66.16363 20997 ft 409 kts 268°
2026-05-08 18:20 24.78874 66.13274 21433 ft 411 kts 268°
2026-05-08 18:20 24.78672 66.10124 21875 ft 414 kts 268°
2026-05-08 18:21 24.78468 66.06954 22305 ft 417 kts 268°
2026-05-08 18:21 24.78261 66.03767 22727 ft 419 kts 268°
2026-05-08 18:21 24.78050 66.00558 23138 ft 422 kts 268°
2026-05-08 18:21 24.77835 65.97332 23517 ft 424 kts 268°
2026-05-08 18:22 24.77618 65.94083 23855 ft 426 kts 268°
2026-05-08 18:22 24.77400 65.90824 24202 ft 427 kts 268°
2026-05-08 18:22 24.77186 65.87605 24551 ft 429 kts 268°
2026-05-08 18:22 24.76968 65.84331 24885 ft 430 kts 268°
2026-05-08 18:23 24.76748 65.81044 25214 ft 431 kts 268°
2026-05-08 18:23 24.76527 65.77747 25538 ft 433 kts 268°
2026-05-08 18:23 24.76303 65.74440 25855 ft 434 kts 268°
2026-05-08 18:23 24.76078 65.71119 26163 ft 436 kts 268°
2026-05-08 18:24 24.75850 65.67789 26463 ft 437 kts 268°
2026-05-08 18:24 24.75622 65.64447 26760 ft 439 kts 268°
2026-05-08 18:24 24.75396 65.61093 27046 ft 440 kts 268°
2026-05-08 18:24 24.75173 65.57774 27340 ft 442 kts 268°
2026-05-08 18:25 24.74940 65.54400 27626 ft 443 kts 268°
2026-05-08 18:25 24.74708 65.51013 27908 ft 445 kts 268°
2026-05-08 18:25 24.74473 65.47618 28189 ft 446 kts 268°
2026-05-08 18:25 24.74236 65.44210 28462 ft 448 kts 268°
2026-05-08 18:26 24.73997 65.40793 28743 ft 448 kts 268°
2026-05-08 18:26 24.73756 65.37370 29016 ft 450 kts 268°
2026-05-08 18:26 24.73515 65.33935 29273 ft 451 kts 268°
2026-05-08 18:26 24.73273 65.30493 29519 ft 452 kts 268°
2026-05-08 18:27 24.73030 65.27085 29751 ft 454 kts 268°
2026-05-08 18:27 24.72865 65.24745 29905 ft 455 kts 268°
2026-05-08 18:27 24.72536 65.20146 30165 ft 456 kts 268°
2026-05-08 18:27 24.72286 65.16661 30366 ft 457 kts 267°
2026-05-08 18:28 24.72035 65.13173 30548 ft 458 kts 267°
2026-05-08 18:28 24.71781 65.09675 30758 ft 458 kts 267°
2026-05-08 18:28 24.71528 65.06191 31039 ft 457 kts 267°
2026-05-08 18:28 24.71274 65.02715 31314 ft 455 kts 267°
2026-05-08 18:29 24.71024 64.99248 31592 ft 454 kts 267°
2026-05-08 18:29 24.70773 64.95785 31859 ft 453 kts 267°
2026-05-08 18:29 24.70529 64.92382 32115 ft 453 kts 266°
2026-05-08 18:29 24.70280 64.88935 32382 ft 452 kts 266°
2026-05-08 18:30 24.70032 64.85497 32659 ft 451 kts 266°
2026-05-08 18:30 24.69785 64.82064 32938 ft 450 kts 266°
2026-05-08 18:30 24.69536 64.78643 33218 ft 448 kts 266°
2026-05-08 18:30 24.69282 64.75228 33496 ft 447 kts 266°
2026-05-08 18:31 24.69025 64.71821 33754 ft 447 kts 266°
2026-05-08 18:31 24.68769 64.68425 33836 ft 443 kts 266°
2026-05-08 18:31 24.68270 64.61788 33850 ft 438 kts 266°
2026-05-08 18:32 24.67763 64.55019 33850 ft 450 kts 266°
2026-05-08 18:32 24.67242 64.48095 33850 ft 459 kts 266°
2026-05-08 18:33 24.66705 64.41061 33849 ft 464 kts 266°
2026-05-08 18:33 24.66162 64.34009 33844 ft 467 kts 266°
2026-05-08 18:34 24.65611 64.26881 33846 ft 468 kts 265°
2026-05-08 18:34 24.65053 64.19753 33843 ft 468 kts 265°
2026-05-08 18:35 24.64487 64.12621 33845 ft 468 kts 265°
2026-05-08 18:35 24.63933 64.05541 33841 ft 468 kts 265°
2026-05-08 18:36 24.63370 63.98404 33834 ft 469 kts 265°
2026-05-08 18:36 24.62805 63.91260 33832 ft 470 kts 265°
2026-05-08 18:37 24.62234 63.84107 33831 ft 470 kts 265°
2026-05-08 18:37 24.61663 63.77004 33831 ft 470 kts 265°
2026-05-08 18:38 24.61082 63.69845 33821 ft 471 kts 265°
2026-05-08 18:38 24.60495 63.62676 33820 ft 471 kts 265°
2026-05-08 18:39 24.59904 63.55501 33819 ft 472 kts 265°
2026-05-08 18:39 24.59317 63.48365 33820 ft 472 kts 265°
2026-05-08 18:40 24.58720 63.41177 33825 ft 473 kts 264°
2026-05-08 18:40 24.58126 63.33983 33819 ft 473 kts 264°
2026-05-08 18:41 24.57523 63.26789 33821 ft 473 kts 264°
2026-05-08 18:41 24.56920 63.19584 33824 ft 474 kts 264°
2026-05-08 18:42 24.56313 63.12421 33825 ft 474 kts 264°
2026-05-08 18:42 24.55699 63.05204 33822 ft 475 kts 264°
2026-05-08 18:43 24.55076 62.97985 33820 ft 475 kts 264°
2026-05-08 18:43 24.54456 62.90764 33823 ft 475 kts 264°
2026-05-08 18:44 24.53836 62.83584 33828 ft 476 kts 264°
2026-05-08 18:44 24.53201 62.76345 33824 ft 476 kts 264°
2026-05-08 18:45 24.52562 62.69112 33839 ft 476 kts 264°
2026-05-08 18:45 24.51930 62.61886 33837 ft 475 kts 264°
2026-05-08 18:46 24.51298 62.54711 33837 ft 475 kts 264°
2026-05-08 18:46 24.50650 62.47495 33835 ft 475 kts 263°
2026-05-08 18:47 24.50000 62.40276 33830 ft 475 kts 263°
2026-05-08 18:47 24.49351 62.33053 33829 ft 475 kts 263°
2026-05-08 18:48 24.48699 62.25838 33824 ft 475 kts 263°
2026-05-08 18:48 24.48045 62.18679 33824 ft 475 kts 263°
2026-05-08 18:49 24.47383 62.11474 33821 ft 474 kts 263°
2026-05-08 18:49 24.46724 62.04274 33817 ft 474 kts 263°
2026-05-08 18:50 24.46052 61.97078 33814 ft 474 kts 263°
2026-05-08 18:50 24.45378 61.89930 33815 ft 474 kts 263°
2026-05-08 18:51 24.44714 61.82737 33818 ft 473 kts 263°
2026-05-08 18:51 24.44040 61.75555 33817 ft 473 kts 263°
2026-05-08 18:52 24.43361 61.68375 33814 ft 473 kts 263°
2026-05-08 18:52 24.42688 61.61248 33813 ft 473 kts 263°
2026-05-08 18:53 24.42007 61.54074 33806 ft 473 kts 263°
2026-05-08 18:53 24.41324 61.46901 33806 ft 473 kts 263°
2026-05-08 18:54 24.40626 61.39725 33804 ft 473 kts 263°
2026-05-08 18:54 24.39843 61.32561 33800 ft 472 kts 257°
2026-05-08 18:55 24.37664 61.22092 33805 ft 471 kts 256°
2026-05-08 18:56 24.36207 61.15092 33797 ft 470 kts 256°
2026-05-08 18:56 24.34754 61.08102 33793 ft 470 kts 256°
2026-05-08 18:57 24.33298 61.01111 33797 ft 470 kts 256°
2026-05-08 18:57 24.31848 60.94168 33797 ft 471 kts 256°
2026-05-08 18:58 24.30372 60.87178 33793 ft 470 kts 256°
2026-05-08 18:58 24.28892 60.80195 33797 ft 470 kts 256°
2026-05-08 18:59 24.27419 60.73206 33796 ft 471 kts 256°
2026-05-08 18:59 24.25949 60.66266 33799 ft 471 kts 256°
2026-05-08 19:00 24.24474 60.59286 33796 ft 470 kts 256°
2026-05-08 19:00 24.22993 60.52309 33798 ft 470 kts 256°
2026-05-08 19:01 24.21506 60.45330 33806 ft 470 kts 256°
2026-05-08 19:01 24.20022 60.38406 33800 ft 470 kts 256°
2026-05-08 19:02 24.18529 60.31444 33801 ft 469 kts 256°
2026-05-08 19:02 24.17037 60.24485 33796 ft 469 kts 256°
2026-05-08 19:03 24.15544 60.17536 33795 ft 469 kts 256°
2026-05-08 19:03 24.14050 60.10597 33799 ft 468 kts 256°
2026-05-08 19:04 24.12564 60.03715 33800 ft 467 kts 256°
2026-05-08 19:04 24.11062 59.96800 33797 ft 467 kts 256°
2026-05-08 19:05 24.09558 59.89887 33796 ft 467 kts 255°
2026-05-08 19:05 24.08047 59.82975 33800 ft 467 kts 255°
2026-05-08 19:06 24.06548 59.76112 33801 ft 467 kts 255°
2026-05-08 19:06 24.05044 59.69203 33798 ft 467 kts 255°
2026-05-08 19:07 24.03534 59.62298 33802 ft 467 kts 255°
2026-05-08 19:07 24.02019 59.55402 33802 ft 466 kts 255°
2026-05-08 19:08 24.00514 59.48564 33797 ft 465 kts 255°
2026-05-08 19:08 23.98995 59.41687 33793 ft 465 kts 255°
2026-05-08 19:09 23.97478 59.34819 33793 ft 465 kts 255°
2026-05-08 19:09 23.95957 59.27946 33795 ft 465 kts 255°
2026-05-08 19:10 23.94431 59.21078 33793 ft 465 kts 255°
2026-05-08 19:10 23.93487 59.14142 33787 ft 468 kts 270°
2026-05-08 19:10 23.93880 59.10607 33791 ft 470 kts 281°
2026-05-08 19:11 23.94852 59.07187 33795 ft 472 kts 287°
2026-05-08 19:11 23.97048 59.00414 33793 ft 473 kts 287°
2026-05-08 19:12 23.99224 58.93629 33789 ft 473 kts 287°
2026-05-08 19:12 24.01374 58.86884 33799 ft 473 kts 287°
2026-05-08 19:13 24.03537 58.80093 33799 ft 473 kts 287°
2026-05-08 19:13 24.05698 58.73309 33800 ft 472 kts 287°
2026-05-08 19:14 24.07865 58.66525 33795 ft 472 kts 287°
2026-05-08 19:14 24.10012 58.59795 33792 ft 472 kts 287°
2026-05-08 19:15 24.12160 58.53006 33793 ft 472 kts 287°
2026-05-08 19:15 24.14310 58.46214 33795 ft 472 kts 287°
2026-05-08 19:16 24.16460 58.39426 33802 ft 472 kts 287°
2026-05-08 19:16 24.18590 58.32684 33803 ft 471 kts 287°
2026-05-08 19:17 24.20727 58.25900 33795 ft 471 kts 287°
2026-05-08 19:17 24.22857 58.19119 33799 ft 471 kts 287°
2026-05-08 19:18 24.24983 58.12342 33797 ft 470 kts 287°
2026-05-08 19:18 24.27092 58.05610 33797 ft 470 kts 287°
2026-05-08 19:19 24.29216 57.98839 33792 ft 469 kts 287°
2026-05-08 19:19 24.31330 57.92069 33793 ft 469 kts 287°
2026-05-08 19:20 24.33439 57.85298 33793 ft 469 kts 287°
2026-05-08 19:20 24.35533 57.78568 33796 ft 469 kts 287°
2026-05-08 19:21 24.37640 57.71799 33795 ft 469 kts 287°
2026-05-08 19:21 24.39741 57.65028 33801 ft 469 kts 286°
2026-05-08 19:22 24.41834 57.58260 33798 ft 468 kts 286°
2026-05-08 19:22 24.43908 57.51544 33770 ft 463 kts 286°
2026-05-08 19:22 24.44921 57.48262 33766 ft 446 kts 286°
2026-05-08 19:23 24.45907 57.45077 33775 ft 437 kts 286°
2026-05-08 19:23 24.47848 57.38806 33552 ft 429 kts 286°
2026-05-08 19:23 24.48797 57.35717 33295 ft 425 kts 286°
2026-05-08 19:24 24.49732 57.32662 32863 ft 420 kts 286°
2026-05-08 19:24 24.50659 57.29634 32349 ft 417 kts 286°
2026-05-08 19:24 24.51578 57.26631 31851 ft 414 kts 286°
2026-05-08 19:24 24.52477 57.23685 31351 ft 411 kts 286°
2026-05-08 19:25 24.53384 57.20718 30865 ft 408 kts 286°
2026-05-08 19:25 24.54286 57.17771 30376 ft 406 kts 286°
2026-05-08 19:25 24.55185 57.14840 29901 ft 404 kts 286°
2026-05-08 19:25 24.56079 57.11929 29367 ft 401 kts 286°
2026-05-08 19:26 24.56966 57.09043 28912 ft 396 kts 286°
2026-05-08 19:26 24.57840 57.06190 28462 ft 392 kts 286°
2026-05-08 19:26 24.58704 57.03362 28007 ft 389 kts 286°
2026-05-08 19:26 24.59544 57.00599 27589 ft 385 kts 286°
2026-05-08 19:27 24.60388 56.97820 27158 ft 382 kts 286°
2026-05-08 19:27 24.61227 56.95064 26734 ft 379 kts 286°
2026-05-08 19:27 24.62061 56.92327 26315 ft 376 kts 286°
2026-05-08 19:27 24.62887 56.89612 25885 ft 374 kts 286°
2026-05-08 19:28 24.63707 56.86911 25456 ft 371 kts 286°
2026-05-08 19:28 24.64618 56.84258 25021 ft 371 kts 293°
2026-05-08 19:28 24.65896 56.81788 24566 ft 372 kts 298°
2026-05-08 19:28 24.67224 56.79394 24119 ft 371 kts 298°
2026-05-08 19:29 24.68566 56.76971 23647 ft 371 kts 298°
2026-05-08 19:29 24.69906 56.74543 23150 ft 371 kts 298°
2026-05-08 19:29 24.71242 56.72117 22666 ft 370 kts 299°
2026-05-08 19:29 24.72570 56.69703 22200 ft 368 kts 299°
2026-05-08 19:30 24.73895 56.67298 21740 ft 367 kts 299°
2026-05-08 19:30 24.75215 56.64904 21283 ft 365 kts 299°
2026-05-08 19:30 24.76528 56.62516 20840 ft 364 kts 299°
2026-05-08 19:30 24.77837 56.60137 20393 ft 363 kts 300°
2026-05-08 19:31 24.79128 56.57796 19956 ft 362 kts 300°
2026-05-08 19:31 24.80434 56.55427 19507 ft 362 kts 300°
2026-05-08 19:31 24.81741 56.53056 19051 ft 362 kts 300°
2026-05-08 19:31 24.83078 56.50616 18607 ft 389 kts 299°
2026-05-08 19:32 24.84509 56.47996 18107 ft 412 kts 300°
2026-05-08 19:32 24.86034 56.45206 17557 ft 439 kts 300°
2026-05-08 19:32 24.87534 56.42225 17007 ft 449 kts 291°
2026-05-08 19:32 24.88334 56.38922 16484 ft 446 kts 275°
2026-05-08 19:33 24.88334 56.35568 15962 ft 444 kts 266°
2026-05-08 19:33 24.88160 56.32184 15436 ft 441 kts 265°
2026-05-08 19:33 24.87978 56.28815 14904 ft 440 kts 267°
2026-05-08 19:33 24.88222 56.25486 14379 ft 436 kts 283°
2026-05-08 19:34 24.89327 56.22407 13890 ft 432 kts 299°
2026-05-08 19:34 24.90785 56.19523 13337 ft 430 kts 300°
2026-05-08 19:34 24.92253 56.16674 12837 ft 426 kts 300°
2026-05-08 19:34 24.93719 56.13849 12492 ft 424 kts 300°
2026-05-08 19:35 24.95147 56.11095 12154 ft 412 kts 300°
2026-05-08 19:35 24.96528 56.08410 12042 ft 394 kts 298°
2026-05-08 19:35 24.97432 56.05641 11929 ft 377 kts 279°
2026-05-08 19:35 24.97748 56.02830 11807 ft 362 kts 276°
2026-05-08 19:36 24.98015 56.00124 11675 ft 348 kts 276°
2026-05-08 19:36 24.98265 55.97525 11573 ft 331 kts 276°
2026-05-08 19:36 24.98497 55.95086 11451 ft 309 kts 276°
2026-05-08 19:36 24.98716 55.92801 11184 ft 294 kts 276°
2026-05-08 19:37 24.98926 55.90617 10721 ft 288 kts 276°
2026-05-08 19:37 24.99135 55.88441 10224 ft 284 kts 276°
2026-05-08 19:37 24.99341 55.86290 9723 ft 280 kts 276°
2026-05-08 19:37 24.99543 55.84170 9174 ft 276 kts 276°
2026-05-08 19:38 24.99966 55.82131 8627 ft 271 kts 292°
2026-05-08 19:38 25.00843 55.80313 8052 ft 268 kts 302°
2026-05-08 19:38 25.01821 55.78573 7483 ft 266 kts 301°
2026-05-08 19:38 25.02789 55.76844 6920 ft 264 kts 301°
2026-05-08 19:39 25.03748 55.75130 6357 ft 262 kts 301°
2026-05-08 19:39 25.04695 55.73428 5766 ft 259 kts 301°
2026-05-08 19:39 25.05625 55.71749 5252 ft 256 kts 301°
2026-05-08 19:39 25.06525 55.70135 5134 ft 243 kts 301°
2026-05-08 19:40 25.07389 55.68590 5075 ft 231 kts 301°
2026-05-08 19:40 25.08212 55.67116 4993 ft 220 kts 301°
2026-05-08 19:40 25.08992 55.65719 4918 ft 208 kts 301°
2026-05-08 19:40 25.09744 55.64372 4832 ft 205 kts 301°
2026-05-08 19:41 25.10488 55.63037 4617 ft 203 kts 301°
2026-05-08 19:41 25.11226 55.61715 4372 ft 201 kts 300°
2026-05-08 19:41 25.11956 55.60406 4115 ft 199 kts 301°
2026-05-08 19:41 25.12667 55.59130 3875 ft 197 kts 301°
2026-05-08 19:42 25.13381 55.57848 3622 ft 195 kts 301°
2026-05-08 19:42 25.14087 55.56582 3386 ft 192 kts 300°
2026-05-08 19:42 25.14783 55.55332 3161 ft 190 kts 300°
2026-05-08 19:42 25.15474 55.54092 2923 ft 189 kts 301°
2026-05-08 19:43 25.16159 55.52862 2681 ft 188 kts 301°
2026-05-08 19:43 25.16840 55.51638 2438 ft 186 kts 302°
2026-05-08 19:43 25.17515 55.50424 2210 ft 185 kts 302°
2026-05-08 19:43 25.18180 55.49229 1980 ft 185 kts 301°
2026-05-08 19:44 25.18854 55.48017 1744 ft 182 kts 301°
2026-05-08 19:44 25.19485 55.46882 1521 ft 165 kts 301°
2026-05-08 19:44 25.20047 55.45872 1333 ft 148 kts 301°
2026-05-08 19:44 25.20571 55.44929 1143 ft 141 kts 301°
2026-05-08 19:45 25.21079 55.44013 969 ft 139 kts 300°
2026-05-08 19:45 25.21585 55.43099 810 ft 141 kts 299°
2026-05-08 19:45 25.22098 55.42173 647 ft 142 kts 300°
2026-05-08 19:45 25.22604 55.41248 413 ft 143 kts 299°
2026-05-08 19:46 25.23128 55.40313 233 ft 145 kts 300°
2026-05-08 19:46 25.23657 55.39370 42 ft 144 kts 299°
2026-05-08 19:46 25.24398 55.38029 27 ft 53 kts 302°
2026-05-08 19:47 25.24515 55.37818 24 ft 23 kts 301°
2026-05-08 19:47 25.24586 55.37657 22 ft 23 kts 289°
2026-05-08 19:47 25.24613 55.37484 22 ft 22 kts 271°
2026-05-08 19:47 25.24614 55.37427 22 ft 0 kts 271°
2026-05-08 19:49 25.24614 55.37424 22 ft 2 kts 271°
2026-05-08 19:49 25.24615 55.37393 22 ft 6 kts 272°
2026-05-08 19:49 25.24617 55.37328 22 ft 10 kts 273°
2026-05-08 19:49 25.24630 55.37256 22 ft 9 kts 288°
2026-05-08 19:50 25.24655 55.37203 24 ft 7 kts 301°
2026-05-08 19:50 25.24678 55.37162 22 ft 6 kts 302°
2026-05-08 19:50 25.24701 55.37123 22 ft 6 kts 302°
2026-05-08 19:50 25.24726 55.37081 22 ft 7 kts 302°
2026-05-08 19:51 25.24757 55.37026 23 ft 10 kts 303°
2026-05-08 19:51 25.24797 55.36954 22 ft 12 kts 302°
2026-05-08 19:51 25.24842 55.36866 23 ft 14 kts 294°
2026-05-08 19:51 25.24868 55.36753 22 ft 16 kts 279°
2026-05-08 19:52 25.24907 55.36638 21 ft 15 kts 299°
2026-05-08 19:52 25.24963 55.36540 22 ft 16 kts 302°
2026-05-08 19:52 25.25023 55.36434 21 ft 17 kts 302°
2026-05-08 19:52 25.25088 55.36317 23 ft 19 kts 301°
2026-05-08 19:53 25.25155 55.36198 21 ft 16 kts 302°
2026-05-08 19:53 25.25212 55.36096 21 ft 15 kts 302°
2026-05-08 19:53 25.25268 55.35997 21 ft 16 kts 302°
2026-05-08 19:53 25.25323 55.35900 21 ft 15 kts 302°
2026-05-08 19:54 25.25376 55.35805 22 ft 15 kts 301°
2026-05-08 19:54 25.25431 55.35706 23 ft 16 kts 302°
2026-05-08 19:54 25.25491 55.35601 22 ft 17 kts 302°
2026-05-08 19:54 25.25555 55.35487 22 ft 18 kts 302°
2026-05-08 19:55 25.25617 55.35377 21 ft 15 kts 302°
2026-05-08 19:55 25.25674 55.35276 21 ft 16 kts 302°
2026-05-08 19:55 25.25733 55.35169 23 ft 17 kts 301°
2026-05-08 19:55 25.25795 55.35056 21 ft 16 kts 300°
2026-05-08 19:56 25.25849 55.34955 22 ft 14 kts 298°
2026-05-08 19:56 25.25859 55.34847 21 ft 15 kts 271°
2026-05-08 19:56 25.25858 55.34752 21 ft 9 kts 238°
2026-05-08 19:56 25.25805 55.34713 21 ft 9 kts 211°
2026-05-08 19:57 25.25777 55.34694 23 ft 1 kts 211°
2026-05-08 19:57 25.25773 55.34692 22 ft 0 kts 211°
2026-05-08 19:57 25.25772 55.34691 22 ft 0 kts 211°